Regional Weather Roundup
Issued by NWS

Home | Current Version | Previous Version | Text Only | Print | Product List | Glossary Off
Versions: 1 2 3 4 5 6 7 8 9 10 11 12 13 14 15 16 17 18 19 20 21 22 23 24 25 26 27 28 29 30 31 32 33 34 35 36 37 38 39 40 41 42 43 44 45 46 47 48 49 50

000
ASUS43 KIND 212359
RWRIN

WEATHER ROUNDUP FOR INDIANA
NATIONAL WEATHER SERVICE INDIANAPOLIS IN
700 PM EST TUE NOV 21 2017

NOTE: "FAIR" INDICATES FEW OR NO CLOUDS BELOW 12,000 FEET WITH NO
SIGNIFICANT WEATHER AND/OR OBSTRUCTIONS TO VISIBILITY.

* - STATION DOES NOT REPORT WEATHER SUCH AS PRECIPITATION OR FOG.

+ - STATION NOT QUALITY CONTROLLED BY THE NATIONAL WEATHER SERVICE.
    USE DATA WITH CAUTION...ESPECIALLY DEWPOINT AND RELATIVE
    HUMIDITY OBSERVATIONS.

INZ001>003-010>013-019-020-220100-
NORTHWEST INDIANA

CITY           SKY/WX    TMP DP  RH WIND       PRES   REMARKS
GARY /AIRPORT/ PTCLDY    34  16  47 NW17      30.10R WCI  23
KNOX *+        CLOUDY    34  28  80 NW13G18   30.05R WCI  25
MICHIGAN CITY+ CLOUDY    34  23  64 NW9G22    30.07R WCI  26
MONTICELLO +   CLOUDY    35  29  79 NW14      30.06R WCI  25
6HR MIN TEMP:  34; 6HR MAX TEMP:  47;

RENSSELAER +   MOCLDY    32  23  69 W12G17    30.09R WCI  23

$$

LMZ046-743>745-220100-
SOUTHERN LAKE MICHIGAN

STATION/POSITION TIME  TEMP    WIND        PRES    WAVE
                       AIR SEA DIR/SP/G            HT
                 (UTC) (F)     (DEG/KT/KT) (MB)    (FT)
BURNS HARBOR     2330   36     320/ 20/ 26 1018.3R
MICHIGAN CITY    2330   35     320/ 23/ 29   N/A

$$

INZ004-005-014>016-021>024-220100-
NORTH CENTRAL INDIANA

CITY           SKY/WX    TMP DP  RH WIND       PRES   REMARKS
ELKHART        CLOUDY    36  28  75 NW12      30.01R WCI  27
GOSHEN         CLOUDY    36  29  75 NW14      30.01R WCI  27
6HR MIN TEMP:  35; 6HR MAX TEMP:  47; 6HR PCP:  0.09;

PERU/GRISSOM   CLOUDY    36  35  99 W15       30.03R WCI  26
6HR MIN TEMP:  35; 6HR MAX TEMP:  48; 6HR PCP:  0.05;

SOUTH BEND     CLOUDY    34  27  75 NW13      30.04R WCI  25
6HR MIN TEMP:  34; 6HR MAX TEMP:  43; 6HR PCP:  0.12;

WARSAW +       CLOUDY    34  32  93 W17       30.02R WCI  23

$$

INZ006>009-017-018-025>027-220100-
NORTHEAST INDIANA

CITY           SKY/WX    TMP DP  RH WIND       PRES   REMARKS
AUBURN +       CLOUDY    36  34  93 W14       29.99R WCI  27
FORT WAYNE     LGT RAIN  39  36  89 W12       30.00R WCI  32
6HR MIN TEMP:  39; 6HR MAX TEMP:  49; 6HR PCP:  0.05;

KENDALLVILLE + CLOUDY    35  34  95 W13       29.98R WCI  26

$$

INZ028-029-035-036-043>045-051>053-220100-
WEST CENTRAL INDIANA

CITY           SKY/WX    TMP DP  RH WIND       PRES   REMARKS
CRAWFORDSVL +  CLOUDY    31  31 100 W10       30.05  WCI  23
6HR MIN TEMP:  31; 6HR MAX TEMP:  51; 6HR PCP:  0.01;

GREENCASTLE +  CLOUDY    37  32  81 NW10G17   30.07R WCI  30
LAFAYETTE      MOCLDY    34  32  92 W8        30.08R WCI  27
6HR MIN TEMP:  34; 6HR MAX TEMP:  50; 6HR PCP:  0.03;

TERRE HAUTE    LGT RAIN  39  33  79 N10       30.09R WCI  32
6HR MIN TEMP:  39; 6HR MAX TEMP:  52; 6HR PCP:  0.02;


$$

INZ030>032-037>040-046>048-054>057-064-065-220100-
CENTRAL INDIANA

CITY           SKY/WX    TMP DP  RH WIND       PRES   REMARKS
COLUMBUS       MOCLDY    46  32  57 NW6       29.99R
FRANKFORT +    CLOUDY    37  35  93 NW12      30.07R WCI  29
6HR MIN TEMP:  36; 6HR MAX TEMP:  54; 6HR PCP:  0.01;

INDIANAPOLIS   LGT RAIN  39  32  76 NW18      30.04R WCI  30
6HR MIN TEMP:  39; 6HR MAX TEMP:  54; 6HR PCP: TRACE;

-EAGLE CREEK   CLOUDY    39  32  76 NW17      30.04R WCI  30
6HR MIN TEMP:  39; 6HR MAX TEMP:  53; 6HR PCP: TRACE;

KOKOMO +       CLOUDY    35  33  92 W18       30.05R WCI  24
6HR MIN TEMP:  35; 6HR MAX TEMP:  51; 6HR PCP:  0.06;

MT COMFORT *+  CLOUDY    43  36  75 NW12G21   30.01R
SHELBYVILLE    CLOUDY    50  34  54 NW18G24   29.99R
6HR MIN TEMP:  50; 6HR MAX TEMP:  57;


$$

INZ033-034-041-042-049-050-058-059-220100-
EAST CENTRAL INDIANA

CITY           SKY/WX    TMP DP  RH WIND       PRES   REMARKS
MUNCIE         CLOUDY    43  35  73 NW15      29.99R
6HR MIN TEMP:  43; 6HR MAX TEMP:  54; 6HR PCP: TRACE;

RICHMOND +     CLOUDY    45  34  65 W10G16    29.96R

$$

INZ060-061-067>069-081>083-085>088-220100-
SOUTHWEST INDIANA

CITY           SKY/WX    TMP DP  RH WIND       PRES   REMARKS
EVANSVILLE     CLOUDY    52  36  54 NW5       30.04R
6HR MIN TEMP:  52; 6HR MAX TEMP:  58;

HUNTINGBURG +  MOCLDY    49  37  63 W6        30.03R
6HR MIN TEMP:  47; 6HR MAX TEMP:  57;


$$

INZ062-063-066-070>080-084-089>092-220100-
SOUTH CENTRAL AND SOUTHEAST INDIANA

CITY           SKY/WX    TMP DP  RH WIND       PRES   REMARKS
BLOOMINGTON    CLOUDY    50  34  54 NW12G17   30.01R
6HR MIN TEMP:  50; 6HR MAX TEMP:  54;

MADISON *+     PTCLDY    50  32  50 W5        30.00R
SEYMOUR +      PTCLDY    50  36  57 W7        29.99R

$$





USA.gov is the U.S. government's official web portal to all federal, state and local government web resources and services.